Weather History for Tanana, AK

Change the Weather History Date:

Wednesday, March 13, 2013

  Actual Average Record
Temperature  
Mean Temperature -2 °F -  
Max Temperature 17 °F 19 °F 39 °F (1958)
Min Temperature -20 °F -3 °F -45 °F (1964)
Degree Days  
Heating Degree Days 67    
Moisture  
Dew Point -14 °F    
Average Humidity 61    
Maximum Humidity 79    
Minimum Humidity 38    
Precipitation  
Precipitation 0.00 in - - ()
Snow  
Snow 0.00 in - - ()
Snow Depth 12.00 in    
Sea Level Pressure  
Sea Level Pressure 30.35 in    
Wind  
Wind Speed 4 mph (East)    
Max Wind Speed 22 mph    
Max Gust Speed 33 mph    
Visibility 10 miles    
Events      
Averages and records for this station are not official NWS values.
T = Trace of Precipitation, MM = Missing Value Source: NWS Daily Summary

Daily Weather History Graph

Daily Weather History Graph

Search for Another Location

Airport:

Trip Planner

Search our weather history database for the weather conditions in past years. The results will help you decide how hot, cold, wet, or windy it might be!

Date:

Astronomy

Mar. 13, 2013 Rise Set
Actual Time 8:32 AM AKDT 8:04 PM AKDT
Civil Twilight 7:43 AM AKDT 8:53 PM AKDT
Nautical Twilight 6:45 AM AKDT 9:52 PM AKDT
Astronomical Twilight 5:40 AM AKDT 10:58 PM AKDT
Moon 8:19 AM AKDT (3/13) 11:46 PM AKDT (3/13)
Length of Visible Light 13h 09m
Length of Day
11h 31m
Waxing Crescent, 4% of the Moon is Illuminated
Mar 13
Waxing Crescent
Mar 19
First Quarter
Mar 27
Full
Apr 2
Last Quarter
Apr 10
New

Hourly Weather History & Observations

Time (AKDT) Temp. Windchill Dew Point Humidity Pressure Visibility Wind Dir Wind Speed Gust Speed Precip Events Conditions
12:52 AM -9.9 °F - -16.1 °F 74% 30.41 in 10.0 mi Calm Calm - N/A   Clear
1:52 AM -14.1 °F - -18.9 °F 79% 30.40 in 10.0 mi Calm Calm - N/A   Clear
2:52 AM -15.0 °F - -20.9 °F 75% 30.39 in 10.0 mi Calm Calm - N/A   Clear
3:52 AM -18.0 °F - -23.1 °F 78% 30.37 in 10.0 mi Calm Calm - N/A   Clear
4:52 AM -20.0 °F - -26.0 °F 74% 30.36 in 10.0 mi Calm Calm - N/A   Clear
5:52 AM -20.9 °F - -27.0 °F 73% 30.35 in 10.0 mi Calm Calm - N/A   Clear
6:52 AM -20.9 °F - -27.0 °F 73% 30.35 in 10.0 mi Calm Calm - N/A   Clear
7:52 AM -18.9 °F - -25.1 °F 74% 30.34 in 10.0 mi Calm Calm - N/A   Clear
8:52 AM -18.9 °F - -25.1 °F 74% 30.33 in 10.0 mi Calm Calm - N/A   Clear
9:52 AM -14.1 °F -28.3 °F -18.9 °F 79% 30.34 in 8.0 mi WNW 5.8 mph - N/A   Clear
10:52 AM -11.0 °F -22.8 °F -16.1 °F 78% 30.35 in 10.0 mi Variable 4.6 mph - N/A   Clear
11:52 AM -0.0 °F -7.9 °F -8.0 °F 69% 30.34 in 10.0 mi SW 3.5 mph - N/A   Clear
12:52 PM 10.9 °F -2.6 °F -0.9 °F 59% 30.35 in 10.0 mi SE 10.4 mph 16.1 mph N/A   Clear
1:52 PM 15.1 °F 3.3 °F 1.0 °F 54% 30.35 in 10.0 mi ESE 9.2 mph - N/A   Clear
2:52 PM 16.0 °F 2.3 °F -0.0 °F 49% 30.34 in 10.0 mi ENE 12.7 mph 19.6 mph N/A   Clear
3:52 PM 15.1 °F -0.6 °F -0.9 °F 49% 30.34 in 10.0 mi East 16.1 mph 25.3 mph N/A   Clear
4:52 PM 12.9 °F -5.7 °F -4.0 °F 47% 30.34 in 10.0 mi East 21.9 mph 33.4 mph N/A   Clear
5:52 PM 10.9 °F -5.9 °F -7.1 °F 44% 30.36 in 10.0 mi East 16.1 mph 23.0 mph N/A   Clear
6:52 PM 10.0 °F -5.2 °F -9.0 °F 42% 30.34 in 10.0 mi East 12.7 mph 20.7 mph N/A   Clear
7:52 PM 9.0 °F -6.6 °F -11.9 °F 38% 30.33 in 10.0 mi ENE 12.7 mph - N/A   Clear
8:52 PM 7.0 °F -9.8 °F -13.0 °F 40% 30.33 in 10.0 mi East 13.8 mph 18.4 mph N/A   Clear
9:52 PM 3.9 °F -11.3 °F -14.1 °F 43% 30.35 in 10.0 mi ENE 10.4 mph - N/A   Clear
10:52 PM 1.9 °F -11.8 °F -16.1 °F 43% 30.35 in 10.0 mi East 8.1 mph - N/A   Clear
11:52 PM -0.9 °F - -17.0 °F 47% 30.35 in 10.0 mi Calm Calm - N/A   Clear